Location: Bauerbach
(50.4985°N, 10.3912°E)
Time: 09:13:37
(UTC+00:00)

Okean 3 - Pass Details

Date: 13 January 2026
Orbit: 541 x 564 km, 82.5° (Epoch: 14 February)

Event Time Altitude Azimuth Distance (km) Brightness Sun altitude
Exits shadow 05:38:42 14° 335° (NNW) 1,597 5.3 -14.6°
Maximum altitude 05:41:56 44° 266° (W) 761 3.6 -14.1°
Drops below altitude 10° 05:45:43 10° 194° (SSW) 1,805 6.0 -13.5°
Sets 05:47:55 0° 188° (S) 2,690 7.0 -13.2°
